Weather History for Douglas Bisbee, AZ

Change the Weather History Date:

Tuesday, March 20, 2012

  Actual Average Record
Temperature  
Mean Temperature 38 °F 55 °F  
Max Temperature 55 °F 73 °F 86 °F (2004)
Min Temperature 20 °F 38 °F 20 °F (2012)
Degree Days  
Heating Degree Days 27 10  
Month to date heating degree days 286 228  
Since 1 July heating degree days 1973 2264  
Cooling Degree Days 0 0  
Month to date cooling degree days 0 0  
Year to date cooling degree days 0 0  
Moisture  
Dew Point 20 °F    
Average Humidity 60    
Maximum Humidity 100    
Minimum Humidity 19    
Precipitation  
Precipitation 0.01 in 0.02 in 0.20 in (1957)
Month to date precipitation 0.02 0.37  
Year to date precipitation 0.25 1.76  
Snow  
Snow 0.00 in - - ()
Month to date snowfall 0.0  
Snow Depth 0.00 in    
Sea Level Pressure  
Sea Level Pressure 30.02 in    
Wind  
Wind Speed 7 mph (NNW)    
Max Wind Speed 21 mph    
Max Gust Speed 29 mph    
Visibility 7 miles    
Events Fog    
T = Trace of Precipitation, MM = Missing Value Source: NWS Daily Summary

Daily Weather History Graph

Daily Weather History Graph

Search for Another Location

Airport:

Trip Planner

Search our weather history database for the weather conditions in past years. The results will help you decide how hot, cold, wet, or windy it might be!

Date:

Astronomy

Mar. 20, 2012 Rise Set
Actual Time 6:21 AM MST 6:30 PM MST
Civil Twilight 5:57 AM MST 6:54 PM MST
Nautical Twilight 5:28 AM MST 7:22 PM MST
Astronomical Twilight 5:00 AM MST 7:51 PM MST
Moon 5:00 AM MST (3/20) 5:04 PM MST (3/20)
Length of Visible Light 12h 57m
Length of Day
12h 08m
Waning Crescent, 3% of the Moon is Illuminated
Mar 20
Waning Crescent
Mar 22
New
Mar 30
First Quarter
Apr 6
Full
Apr 13
Last Quarter

Hourly Weather History & Observations

Time (MST) Temp. Windchill Dew Point Humidity Pressure Visibility Wind Dir Wind Speed Gust Speed Precip Events Conditions
12:56 AM 24.1 °F 19.7 °F 23.0 °F 96% 30.01 in 10.0 mi SE 3.5 mph - N/A   Clear
1:56 AM 25.0 °F - 24.1 °F 96% 29.99 in 10.0 mi Calm Calm - N/A   Clear
2:56 AM 25.0 °F - 24.1 °F 96% 30.00 in 10.0 mi Calm Calm - N/A   Clear
3:56 AM 21.9 °F - 19.9 °F 92% 30.00 in 10.0 mi Calm Calm - N/A   Clear
4:56 AM 21.9 °F - 21.0 °F 96% 30.01 in 10.0 mi Calm Calm - N/A   Clear
5:56 AM 19.9 °F - 18.0 °F 92% 30.03 in 10.0 mi Calm Calm - N/A   Clear
6:18 AM 21.2 °F - 19.4 °F 93% 30.01 in 0.8 mi Calm Calm - N/A   Clear
6:29 AM 21.2 °F - 19.4 °F 93% 30.02 in 0.2 mi Calm Calm - N/A Fog Light Freezing Fog
6:37 AM 21.2 °F - 19.4 °F 93% 30.02 in 2.5 mi Calm Calm - N/A   Mostly Cloudy
6:44 AM 21.2 °F - 19.4 °F 93% 30.02 in 1.2 mi Calm Calm - N/A   Mostly Cloudy
6:51 AM 23.0 °F - 21.2 °F 93% 30.02 in 0.2 mi Calm Calm - N/A Fog Light Freezing Fog
6:56 AM 23.0 °F - 23.0 °F 100% 30.05 in 0.2 mi Calm Calm - N/A Fog Light Freezing Fog
7:00 AM 24.8 °F - 23.0 °F 93% 30.03 in 2.0 mi Calm Calm - N/A   Overcast
7:07 AM 24.8 °F - 24.8 °F 100% 30.03 in 4.0 mi Calm Calm - N/A   Overcast
7:11 AM 24.8 °F - 24.8 °F 100% 30.03 in 1.0 mi Calm Calm - N/A   Mist
7:18 AM 24.8 °F - 24.8 °F 100% 30.04 in 0.2 mi Calm Calm - N/A Fog Light Freezing Fog
8:24 AM 28.4 °F - 28.4 °F 100% 30.07 in 1.5 mi Calm Calm - N/A   Mostly Cloudy
8:27 AM 28.4 °F - 28.4 °F 100% 30.07 in 3.0 mi Calm Calm - N/A   Mostly Cloudy
8:37 AM 30.2 °F - 30.2 °F 100% 30.07 in 10.0 mi Calm Calm - N/A   Scattered Clouds
8:56 AM 33.1 °F 30.0 °F 30.9 °F 92% 30.07 in 10.0 mi WNW 3.5 mph - 0.01 in   Clear
9:56 AM 41.0 °F 34.7 °F 24.1 °F 51% 30.07 in 10.0 mi NNW 10.4 mph 18.4 mph N/A   Clear
10:56 AM 45.0 °F 38.9 °F 23.0 °F 42% 30.05 in 10.0 mi NW 12.7 mph 17.3 mph N/A   Clear
11:56 AM 46.9 °F - 19.0 °F 33% 30.03 in 10.0 mi WNW 9.2 mph 19.6 mph N/A   Clear
12:56 PM 51.1 °F - 14.0 °F 23% 30.01 in 10.0 mi NW 16.1 mph 21.9 mph N/A   Clear
1:56 PM 52.0 °F - 12.9 °F 21% 29.99 in 10.0 mi North 10.4 mph 26.5 mph N/A   Clear
2:56 PM 54.0 °F - 12.0 °F 19% 29.96 in 10.0 mi North 16.1 mph 23.0 mph N/A   Clear
3:56 PM 54.0 °F - 12.9 °F 20% 29.97 in 10.0 mi NW 10.4 mph 19.6 mph N/A   Clear
4:56 PM 54.0 °F - 12.9 °F 20% 29.96 in 10.0 mi North 12.7 mph - N/A   Clear
5:56 PM 52.0 °F - 14.0 °F 22% 29.97 in 10.0 mi North 8.1 mph - N/A   Clear
6:56 PM 48.0 °F - 15.1 °F 27% 29.99 in 10.0 mi North 10.4 mph - N/A   Clear
7:56 PM 43.0 °F 37.7 °F 15.1 °F 32% 30.03 in 10.0 mi North 9.2 mph - N/A   Clear
8:56 PM 41.0 °F 34.3 °F 15.1 °F 35% 30.05 in 10.0 mi North 11.5 mph - N/A   Clear
9:56 PM 39.0 °F 31.4 °F 17.1 °F 41% 30.05 in 10.0 mi NNW 12.7 mph - N/A   Clear
10:56 PM 37.9 °F 34.4 °F 17.1 °F 43% 30.05 in 10.0 mi NW 4.6 mph - N/A   Clear
11:56 PM 37.0 °F 29.3 °F 21.9 °F 54% 30.05 in 10.0 mi NNW 11.5 mph - N/A   Clear